BMCB-17 Weather Reports


Display with metric or nautical units.
time (UTC)temp
F
wind
direction
speed
MPH
gust
MPH
rain 1hr
in
rain 24hr
in
rain mn
in
humidity
%
barometer
mb
20260505124058 51 0 0.0 0.0 0.00 0.04 0.03 10 1008.5
20260505123057 51 0 0.0 0.0 0.00 0.04 0.03 10 1008.5
20260505122056 51 0 0.0 0.0 0.01 0.04 0.03 10 1008.5
20260505121056 51 0 0.0 0.0 0.01 0.04 0.03 10 1008.5
20260505120057 51 0 0.0 0.0 0.01 0.04 0.03 10 1008.6
20260505115056 51 0 0.0 0.0 0.01 0.04 0.03 10 1008.7
20260505114058 51 0 0.0 0.0 0.01 0.04 0.03 10 1008.7
20260505113057 51 0 0.0 0.0 0.01 0.04 0.03 10 1008.7
20260505112057 51 0 0.0 0.0 0.01 0.04 0.03 10 1008.8
20260505111059 51 0 0.0 0.0 0.00 0.03 0.02 10 1008.9
20260505102056 51 0 0.0 0.0 0.01 0.03 0.02 10 1009.2
20260505101100 51 0 0.0 0.0 0.01 0.03 0.02 10 1009.1
20260505100056 51 0 0.0 0.0 0.01 0.03 0.02 10 1009.1
20260505095056 51 0 0.0 0.0 0.01 0.03 0.02 10 1009.0
20260505094058 51 0 0.0 0.0 0.01 0.03 0.02 10 1009.1
20260505093057 51 0 0.0 0.0 0.01 0.03 0.02 10 1009.1
20260505091057 51 0 0.0 0.0 0.00 0.02 0.02 10 1009.1
20260505090056 51 0 0.0 0.0 0.00 0.02 0.02 10 1009.1
20260505085057 51 0 0.0 0.0 0.00 0.02 0.02 10 1009.1
20260505083057 51 0 0.0 0.0 0.00 0.02 0.02 10 1009.2
20260505082058 51 0 0.0 0.0 0.01 0.02 0.02 10 1009.2
20260505081056 51 0 0.0 0.0 0.01 0.02 0.02 10 1009.3
20260505080057 51 0 0.0 0.0 0.01 0.02 0.02 10 1009.4
20260505075054 51 0 0.0 0.0 0.01 0.02 0.02 10 1009.4
20260505074057 51 0 0.0 0.0 0.01 0.02 0.02 10 1009.3
20260505073057 51 0 0.0 0.0 0.01 0.02 0.02 10 1009.3
20260505072057 51 0 0.0 0.0 0.01 0.02 0.02 10 1009.4
20260505071059 51 0 0.0 0.0 0.00 0.02 0.01 10 1009.5
20260505065058 51 0 0.0 0.0 0.00 0.02 0.01 10 1009.4
20260505063056 51 0 0.0 0.0 0.00 0.02 0.01 10 1009.5
20260505062053 51 0 0.0 0.0 0.00 0.02 0.01 10 1009.5
20260505060058 52 0 0.0 0.0 0.00 0.02 0.01 10 1009.5
20260505055056 52 0 0.0 0.0 0.00 0.02 0.01 10 1009.5
20260505054058 52 0 0.0 0.0 0.00 0.02 0.01 10 1009.4
20260505053056 52 0 0.0 0.0 0.00 0.02 0.01 10 1009.4
20260505052055 52 0 0.0 0.0 0.01 0.02 0.01 10 1009.4
20260505041056 53 0 0.0 0.0 0.00 0.01 0.00 10 1009.5
20260505040056 53 0 0.0 0.0 0.00 0.01 0.00 10 1009.6
20260505035058 53 0 0.0 0.0 0.00 0.01 0.00 10 1009.7
20260505031057 53 0 0.0 0.0 0.00 0.01 0.00 10 1009.9
20260505030056 53 0 0.0 0.0 0.00 0.01 0.00 10 1010.0
20260505025056 53 0 0.0 0.0 0.00 0.01 0.00 10 1010.1
20260505024059 53 0 0.0 0.0 0.00 0.01 0.00 10 1010.1
20260505023059 53 0 0.0 0.0 0.00 0.01 0.00 10 1010.1
20260505022056 53 0 0.0 0.0 0.00 0.01 0.00 10 1010.0
20260505021057 53 0 0.0 0.0 0.00 0.01 0.00 10 1010.0
20260505020059 53 0 0.0 0.0 0.00 0.01 0.00 10 1010.0
20260505015056 53 0 0.0 0.0 0.00 0.01 0.00 10 1010.0
20260505014057 53 0 0.0 0.0 0.00 0.01 0.00 10 1010.0
20260505013054 53 0 0.0 0.0 0.00 0.02 0.00 10 1010.1
20260505012056 53 0 0.0 0.0 0.00 0.02 0.00 10 1010.0
20260505011055 54 0 0.0 0.0 0.00 0.02 0.00 10 1010.1
20260505010057 54 0 0.0 0.0 0.00 0.02 0.00 10 1010.2
20260505005059 54 0 0.0 0.0 0.00 0.02 0.00 10 1010.2
20260505004056 54 0 0.0 0.0 0.00 0.02 0.00 10 1010.2
20260505003058 53 0 0.0 0.0 0.00 0.02 0.00 10 1010.3
20260505002056 53 0 0.0 0.0 0.00 0.02 0.00 10 1010.5
20260505001058 53 0 0.0 0.0 0.00 0.02 0.00 10 1010.7
20260505000100 53 0 0.0 0.0 0.00 0.02 0.00 10 1010.7
20260504235100 53 0 0.0 0.0 0.00 0.02 0.00 10 1010.7
20260504234100 53 0 0.0 0.0 0.00 0.02 0.00 10 1010.8
20260504233101 53 0 0.0 0.0 0.00 0.02 0.00 10 1010.9
20260504232101 53 0 0.0 0.0 0.00 0.02 0.00 10 1010.9
20260504231102 53 0 0.0 0.0 0.00 0.02 0.00 10 1011.1
20260504230059 53 0 0.0 0.0 0.00 0.02 0.00 10 1011.2
20260504225102 52 0 0.0 0.0 0.00 0.02 0.00 10 1011.2
20260504224103 52 0 0.0 0.0 0.00 0.02 0.00 10 1011.2
20260504222104 52 0 0.0 0.0 0.00 0.02 0.00 10 1011.4
20260504215103 53 0 0.0 0.0 0.00 0.02 0.02 10 1011.6
20260504214106 53 0 0.0 0.0 0.00 0.02 0.02 10 1011.6
20260504213104 53 0 0.0 0.0 0.00 0.06 0.02 10 1011.7
20260504210104 53 0 0.0 0.0 0.00 0.12 0.02 10 1011.9
20260504205102 53 0 0.0 0.0 0.00 0.13 0.02 10 1012.0
20260504204103 54 0 0.0 0.0 0.00 0.15 0.02 10 1012.0
20260504203105 54 0 0.0 0.0 0.00 0.17 0.02 10 1012.0
20260504202113 54 0 0.0 0.0 0.00 0.19 0.02 10 1011.8
20260504201109 55 0 0.0 0.0 0.00 0.20 0.02 10 1011.8
20260504200105 55 0 0.0 0.0 0.00 0.20 0.02 10 1011.7
20260504195105 55 0 0.0 0.0 0.00 0.20 0.02 10 1011.7
20260504194102 55 0 0.0 0.0 0.00 0.22 0.02 10 1011.6
20260504192104 55 0 0.0 0.0 0.00 0.28 0.02 10 1011.4
20260504191104 55 0 0.0 0.0 0.00 0.31 0.02 99 1011.4
20260504185105 55 0 0.0 0.0 0.00 0.33 0.02 98 1011.3
20260504184101 56 0 0.0 0.0 0.00 0.33 0.02 97 1011.2
20260504183102 56 0 0.0 0.0 0.00 0.35 0.02 96 1011.2
20260504182100 56 0 0.0 0.0 0.00 0.38 0.02 97 1011.1
20260504181103 57 0 0.0 0.0 0.00 0.39 0.02 97 1011.1
20260504180103 57 0 0.0 0.0 0.00 0.40 0.02 97 1011.2
20260504175101 57 0 0.0 0.0 0.00 0.43 0.02 96 1011.3
20260504174102 57 0 0.0 0.0 0.00 0.43 0.02 95 1011.3
20260504173103 57 0 0.0 0.0 0.00 0.43 0.02 94 1011.3
20260504172102 58 0 0.0 0.0 0.00 0.43 0.02 94 1011.3
20260504171101 58 0 0.0 0.0 0.00 0.43 0.02 93 1011.3
20260504151101 58 0 0.0 0.0 0.01 0.43 0.02 95 1011.7
20260504141100 58 0 0.0 0.0 0.00 0.42 0.01 94 1012.1